[[{"header":{"parameterUnit":"m.s-1","parameterCategory":1,"la1":30.2991,"la2":30.254,"lo1":-89.0895,"lo2":-89.0444,"dy":0.0017,"dx":0.0017,"nx":28,"ny":28,"refTime":"2025-01-20T09:00:00:Z","depth":0,"parameterNumber":2,"parameterNumberName":"U-component_of_WINDS"},"data":[0,0,0,0,0,0,0,0,0,0,0,0,0,0,0,0,0,0,0,0,0,0,0,0,0,0,0,0,0,0,0,0,0,0,0,0,0,0,0,0,0,0,0,0,0,0,0,0,0,0,0,0,0,0,0,0,0,0,-0.1068,-0.1068,0,-0.1123,-0.1124,-0.1125,-0.1115,-0.1114,-0.1113,-0.1112,-0.1174,-0.1176,-0.1178,0,0,0,0,0,0,0,0,0,0,0,0,0,-0.0956,-0.0958,-0.1068,-0.1068,-0.1069,-0.1123,-0.1124,-0.1125,-0.1115,-0.1114,-0.1113,-0.1112,-0.1173,-0.1176,-0.1179,0,0,0,0,0,0,0,0,0,0,0,0,0,-0.1007,-0.0959,-0.1067,-0.1071,-0.1072,-0.1123,-0.1124,-0.1125,-0.1116,-0.1114,-0.1113,-0.1111,-0.1172,-0.1175,-0.1179,-0.1232,0,0,-0.1191,-0.1192,0,0,0,0,0,0,0,0,-0.1004,-0.1011,-0.107,-0.1071,-0.1072,-0.1111,-0.1107,-0.1161,-0.1116,-0.1099,-0.1112,-0.1111,-0.1154,-0.1159,-0.1173,-0.1235,-0.1238,-0.1191,-0.1193,-0.1195,-0.1196,0,0,0,0,0,0,0,-0.1001,-0.1009,-0.109,-0.107,-0.1072,-0.107,-0.1076,-0.1117,-0.1134,-0.11,-0.11,-0.1106,-0.1154,-0.1169,-0.1174,-0.1239,-0.1191,-0.1194,-0.1197,-0.1198,-0.1346,-0.1348,0,0,0,0,0,0,-0.0996,-0.1006,-0.1088,-0.1091,-0.1034,-0.1073,-0.108,-0.11,-0.1134,-0.1137,-0.1107,-0.1106,-0.1164,-0.117,-0.1177,-0.1241,-0.1195,-0.1199,-0.1201,-0.1345,-0.1347,-0.1348,0,0,0,0,0,0,-0.0993,-0.1003,-0.1086,-0.1049,-0.1059,-0.1077,-0.1099,-0.1102,-0.1117,-0.1139,-0.1142,-0.112,-0.1163,-0.1171,-0.1218,-0.1243,-0.12,-0.1204,-0.1343,-0.1345,-0.1347,-0.1371,0,0,0,0,0,0,-0.099,-0.1002,-0.1022,-0.1049,-0.1061,-0.1126,-0.1101,-0.1104,-0.1123,-0.1121,-0.1151,-0.1155,-0.1162,-0.1212,-0.1222,-0.1248,-0.1207,-0.1341,-0.1344,-0.1347,-0.1368,-0.1374,-0.1378,0,0,0,0,0,-0.0986,-0.1028,-0.1023,-0.1033,-0.1086,-0.1127,-0.1134,-0.114,-0.1125,-0.1145,-0.1159,-0.1154,-0.1238,-0.1217,-0.1228,-0.1255,-0.1339,-0.1343,-0.1346,-0.1365,-0.1372,-0.1378,0,0,0,0,0,0,-0.1006,-0.1031,-0.1027,-0.1078,-0.11,-0.1125,-0.1152,-0.1148,-0.1176,-0.1173,-0.1181,-0.1188,-0.1235,-0.125,-0.1226,-0.1308,-0.1287,-0.1293,-0.1297,-0.1304,-0.1309,-0.1306,-0.121,0,0,0,0,0,-0.1015,-0.1045,-0.1067,-0.111,-0.1121,-0.1134,-0.1152,-0.1155,-0.1179,-0.1189,-0.1206,-0.1231,-0.1263,-0.1284,-0.1314,-0.1369,-0.1376,-0.1392,-0.1398,-0.1402,-0.1408,-0.1438,-0.1446,-0.136,-0.136,-0.136,0,0,-0.1037,-0.1055,-0.1074,-0.1114,-0.1132,-0.1164,-0.1143,-0.1177,-0.1202,-0.1195,-0.124,-0.1253,-0.1281,-0.1331,-0.1355,-0.1345,-0.1432,-0.1407,-0.141,-0.1414,-0.1442,-0.145,-0.1458,-0.1363,-0.1362,-0.1362,0,0,-0.1093,-0.1109,-0.1146,-0.1163,-0.1189,-0.1197,-0.1206,-0.1232,-0.124,-0.1285,-0.128,-0.1309,-0.1363,-0.1383,-0.1401,-0.1461,-0.1457,-0.147,-0.15,-0.1528,-0.1535,-0.1541,-0.1564,-0.1572,-0.1476,-0.1476,-0.1476,0,-0.1117,-0.1164,-0.1166,-0.1201,-0.122,-0.1212,-0.125,-0.1267,-0.1303,-0.1316,-0.1303,-0.1371,-0.1389,-0.1444,-0.1459,-0.1472,-0.1483,-0.1468,-0.1534,-0.154,-0.1546,-0.1567,-0.1575,-0.1477,-0.1477,-0.1477,-0.1477,0,-0.1193,-0.1225,-0.1252,-0.1284,-0.1305,-0.1342,-0.1351,-0.1371,-0.1371,-0.1381,-0.1426,-0.1447,-0.1482,-0.1494,-0.1495,-0.1549,-0.1542,-0.1532,-0.1511,-0.1555,-0.1576,-0.1584,-0.1479,-0.1479,-0.1478,-0.1478,0,0,-0.1266,-0.1296,-0.1307,-0.1321,-0.1348,-0.1373,-0.1409,-0.1441,-0.1459,-0.1483,-0.1514,-0.1559,-0.1548,-0.1568,-0.157,-0.1595,-0.1642,-0.1582,-0.1582,-0.1594,-0.1704,-0.1714,-0.1723,-0.1639,-0.164,-0.1642,-0.1702,0,-0.1325,-0.1387,-0.139,-0.1447,-0.1477,-0.1469,-0.15,-0.152,-0.1529,-0.1557,-0.1567,-0.16,-0.1583,-0.1595,-0.1619,-0.1632,-0.1665,-0.1627,-0.1669,-0.1671,-0.1665,-0.1734,-0.1744,-0.1801,-0.171,-0.1711,-0.1712,0,-0.1404,-0.1428,-0.1488,-0.1509,-0.1522,-0.155,-0.1579,-0.1605,-0.1627,-0.1632,-0.1652,-0.165,-0.1688,-0.1663,-0.1715,-0.1689,-0.1706,-0.1714,-0.1717,-0.1723,-0.1696,-0.1743,-0.1819,-0.1828,-0.1725,-0.1724,-0.1723,0,-0.1453,-0.15,-0.1542,-0.1554,-0.158,-0.1599,-0.1611,-0.1632,-0.165,-0.1675,-0.1688,-0.1717,-0.1734,-0.1757,-0.1764,-0.1745,-0.1815,-0.1791,-0.1822,-0.1822,-0.1839,-0.1839,-0.192,-0.1847,-0.1846,-0.1846,-0.1846,0,-0.152,-0.1558,-0.1564,-0.159,-0.1632,-0.1633,-0.1675,-0.1685,-0.1703,-0.1731,-0.1725,-0.1753,-0.1758,-0.1786,-0.1792,-0.1834,-0.1841,-0.1847,-0.1848,-0.1849,-0.1848,-0.1862,-0.1859,-0.1849,-0.1848,-0.1848,-0.1847,0,-0.1584,-0.1589,-0.1634,-0.1653,-0.1659,-0.1689,-0.1706,-0.1731,-0.1738,-0.1774,-0.1782,-0.1794,-0.1827,-0.1834,-0.1874,-0.1877,-0.1928,-0.1924,-0.192,-0.1921,-0.1951,-0.1949,-0.2046,-0.206,-0.1975,-0.1976,-0.1977,0,-0.1628,-0.1656,-0.1677,-0.1695,-0.1707,-0.1736,-0.1754,-0.1756,-0.1776,-0.1802,-0.1824,-0.1855,-0.1881,-0.1933,-0.1946,-0.1976,-0.1975,-0.2006,-0.1979,-0.1979,-0.1977,-0.1976,-0.1979,-0.2013,-0.2014,-0.2014,-0.2015,0,-0.1706,-0.1706,-0.1732,-0.1759,-0.178,-0.1801,-0.1822,-0.1837,-0.1841,-0.1864,-0.1896,-0.1915,-0.1954,-0.1986,-0.2015,-0.2028,-0.2023,-0.2023,-0.2032,-0.2034,-0.2031,-0.2034,-0.1937,-0.2021,-0.2021,-0.202,-0.202,-0.202,-0.1762,-0.1787,-0.1805,-0.1834,-0.1848,-0.1867,-0.1891,-0.19,-0.1927,-0.1958,-0.1957,-0.1993,-0.2013,-0.2051,-0.2066,-0.2094,-0.2084,-0.2097,-0.21,-0.2104,-0.2108,-0.2024,-0.2099,-0.2099,-0.2099,-0.2098,-0.2098,0,-0.1841,-0.1852,-0.1878,-0.1906,-0.1928,-0.1918,-0.1939,-0.1959,-0.199,-0.2009,-0.2033,-0.207,-0.21,-0.2114,-0.2143,-0.2163,-0.2162,-0.2171,-0.2171,-0.2174,-0.2114,-0.2104,-0.2172,-0.2172,-0.2172,-0.2172,-0.2172,-0.2172,-0.1885,-0.1926,-0.1929,-0.1977,-0.1987,-0.2021,-0.2034,-0.2051,-0.2066,-0.2107,-0.2131,-0.2139,-0.2156,-0.2186,-0.2213,-0.2216,-0.2228,-0.224,-0.2242,-0.2186,-0.2179,-0.2172,-0.2162,-0.2242,-0.2242,-0.23,-0.2301,-0.2301]},{"header":{"parameterUnit":"m.s-1","parameterCategory":1,"la1":30.2991,"la2":30.254,"lo1":-89.0895,"lo2":-89.0444,"dy":0.0017,"dx":0.0017,"nx":28,"ny":28,"refTime":"2025-01-20T09:00:00:Z","depth":0,"parameterNumber":3,"parameterNumberName":"V-component_of_WINDS"},"data":[0,0,0,0,0,0,0,0,0,0,0,0,0,0,0,0,0,0,0,0,0,0,0,0,0,0,0,0,0,0,0,0,0,0,0,0,0,0,0,0,0,0,0,0,0,0,0,0,0,0,0,0,0,0,0,0,0,0,-7.6676,-7.6677,0,-7.6816,-7.6817,-7.6819,-7.6705,-7.67,-7.6695,-7.6691,-7.6829,-7.6837,-7.6845,0,0,0,0,0,0,0,0,0,0,0,0,0,-7.6305,-7.6312,-7.6676,-7.6677,-7.6679,-7.6816,-7.6817,-7.6819,-7.6706,-7.67,-7.6694,-7.6688,-7.6826,-7.6836,-7.6846,0,0,0,0,0,0,0,0,0,0,0,0,0,-7.6457,-7.6314,-7.6675,-7.6639,-7.6637,-7.6815,-7.6818,-7.682,-7.6707,-7.67,-7.6692,-7.6686,-7.6823,-7.6835,-7.6847,-7.7067,0,0,-7.6884,-7.689,0,0,0,0,0,0,0,0,-7.6449,-7.6471,-7.6643,-7.6642,-7.664,-7.6735,-7.6737,-7.6903,-7.6709,-7.668,-7.669,-7.6682,-7.6803,-7.6817,-7.6859,-7.7073,-7.7079,-7.6886,-7.6893,-7.6898,-7.6902,0,0,0,0,0,0,0,-7.6438,-7.6464,-7.6731,-7.6645,-7.6644,-7.6614,-7.6628,-7.6768,-7.678,-7.6682,-7.6674,-7.6693,-7.6801,-7.6847,-7.6861,-7.7081,-7.6885,-7.6896,-7.6904,-7.6908,-7.7483,-7.749,0,0,0,0,0,0,-7.6432,-7.6456,-7.6726,-7.6735,-7.6525,-7.6627,-7.6642,-7.6712,-7.6779,-7.6782,-7.6699,-7.6687,-7.683,-7.6847,-7.6866,-7.7127,-7.6898,-7.691,-7.6917,-7.7475,-7.7484,-7.7493,0,0,0,0,0,0,-7.6425,-7.6457,-7.6721,-7.6594,-7.6625,-7.6641,-7.672,-7.6719,-7.6764,-7.6791,-7.6792,-7.6744,-7.6825,-7.6848,-7.7018,-7.713,-7.6915,-7.6926,-7.7466,-7.7478,-7.7489,-7.7653,0,0,0,0,0,0,-7.6414,-7.6455,-7.654,-7.6597,-7.6632,-7.6873,-7.6727,-7.6727,-7.6787,-7.6772,-7.6834,-7.6837,-7.6821,-7.7,-7.703,-7.7143,-7.6936,-7.7455,-7.7471,-7.7485,-7.7638,-7.7669,-7.7696,0,0,0,0,0,-7.6402,-7.658,-7.6545,-7.6578,-7.6739,-7.688,-7.69,-7.688,-7.6796,-7.6881,-7.6898,-7.6835,-7.7113,-7.7019,-7.7051,-7.717,-7.7448,-7.7467,-7.7484,-7.7624,-7.7663,-7.7695,0,0,0,0,0,0,-7.6535,-7.6586,-7.6549,-7.6751,-7.6812,-7.686,-7.6967,-7.6921,-7.7006,-7.6989,-7.6958,-7.6973,-7.7152,-7.7177,-7.7071,-7.7386,-7.7267,-7.7292,-7.7363,-7.74,-7.7428,-7.7418,-7.6946,0,0,0,0,0,-7.6588,-7.6699,-7.6738,-7.6912,-7.6945,-7.6951,-7.7012,-7.6991,-7.7052,-7.7077,-7.7106,-7.7167,-7.7268,-7.7335,-7.7429,-7.764,-7.7652,-7.7738,-7.7767,-7.7791,-7.7813,-7.7926,-7.7965,-7.7551,-7.7551,-7.7551,0,0,-7.6698,-7.674,-7.6812,-7.694,-7.6985,-7.71,-7.6974,-7.71,-7.7185,-7.7095,-7.7258,-7.7282,-7.7347,-7.7539,-7.7625,-7.7566,-7.793,-7.7814,-7.7832,-7.7842,-7.7949,-7.7988,-7.8023,-7.7564,-7.7561,-7.7559,0,0,-7.6958,-7.7002,-7.7152,-7.72,-7.727,-7.7273,-7.7309,-7.7365,-7.7378,-7.7541,-7.7476,-7.7575,-7.775,-7.78,-7.7847,-7.8127,-7.8072,-7.8158,-7.831,-7.8421,-7.8454,-7.8483,-7.8582,-7.8618,-7.818,-7.818,-7.8181,0,-7.7086,-7.7259,-7.7234,-7.7367,-7.7425,-7.7351,-7.7502,-7.7549,-7.7646,-7.7687,-7.762,-7.7838,-7.7877,-7.8079,-7.8147,-7.8189,-7.8228,-7.8151,-7.8451,-7.848,-7.8506,-7.8601,-7.8639,-7.819,-7.8189,-7.8188,-7.8187,0,-7.7412,-7.7533,-7.7645,-7.7743,-7.7813,-7.7954,-7.795,-7.8024,-7.7997,-7.8007,-7.8173,-7.8217,-7.8319,-7.8365,-7.8339,-7.8564,-7.8525,-7.8456,-7.8336,-7.8556,-7.8645,-7.8681,-7.8205,-7.8201,-7.8198,-7.8196,0,0,-7.776,-7.7844,-7.7885,-7.7929,-7.8001,-7.8093,-7.823,-7.8331,-7.8395,-7.8464,-7.8578,-7.8728,-7.8664,-7.8718,-7.8697,-7.8795,-7.9013,-7.8712,-7.8713,-7.8767,-7.9263,-7.9315,-7.9358,-7.8977,-7.8984,-7.8989,-7.9257,0,-7.8024,-7.8265,-7.8247,-7.8474,-7.8584,-7.8516,-7.8635,-7.8691,-7.8704,-7.8798,-7.881,-7.8917,-7.8824,-7.8857,-7.895,-7.8967,-7.9112,-7.8947,-7.9081,-7.9086,-7.9068,-7.9404,-7.946,-7.9711,-7.9292,-7.9298,-7.9302,0,-7.8364,-7.8447,-7.8685,-7.8741,-7.8787,-7.8895,-7.8986,-7.9078,-7.9139,-7.9141,-7.9203,-7.9165,-7.9302,-7.9179,-7.9366,-7.9254,-7.9308,-7.9324,-7.9333,-7.9345,-7.9208,-7.9425,-7.9791,-7.9829,-7.9356,-7.9352,-7.9348,0,-7.8595,-7.8766,-7.893,-7.8969,-7.9039,-7.9116,-7.9148,-7.9203,-7.9265,-7.9344,-7.9384,-7.9478,-7.953,-7.9602,-7.959,-7.9502,-7.9781,-7.9657,-7.9785,-7.9786,-7.9848,-7.9844,-8.0228,-7.9882,-7.9882,-7.9881,-7.988,0,-7.8891,-7.904,-7.9035,-7.9137,-7.93,-7.9278,-7.944,-7.9463,-7.9512,-7.9616,-7.9561,-7.9659,-7.9637,-7.9734,-7.9725,-7.9881,-7.9904,-7.9909,-7.9905,-7.9915,-7.9914,-7.9949,-7.9932,-7.9891,-7.9889,-7.9887,-7.9885,0,-7.9177,-7.918,-7.9355,-7.9406,-7.9423,-7.9541,-7.9584,-7.9679,-7.9687,-7.9818,-7.9848,-7.986,-7.9971,-7.9966,-8.0091,-8.0085,-8.0278,-8.0253,-8.0258,-8.0253,-8.0382,-8.037,-8.0802,-8.0858,-8.0476,-8.0479,-8.0483,0,-7.9366,-7.9479,-7.9543,-7.961,-7.9647,-7.9754,-7.9818,-7.98,-7.9868,-7.9947,-8.0033,-8.0139,-8.0223,-8.0404,-8.0422,-8.0518,-8.0495,-8.064,-8.0509,-8.0515,-8.0498,-8.0491,-8.0502,-8.0666,-8.067,-8.0673,-8.0676,0,-7.9702,-7.9698,-7.9793,-7.989,-7.9968,-8.0042,-8.0109,-8.0166,-8.0155,-8.0234,-8.0348,-8.0414,-8.0543,-8.0649,-8.074,-8.0771,-8.0722,-8.0717,-8.0752,-8.0763,-8.0762,-8.0765,-8.0329,-8.0707,-8.0704,-8.0702,-8.07,-8.0699,-7.9946,-8.0043,-8.0104,-8.0211,-8.0261,-8.0326,-8.0418,-8.0438,-8.0533,-8.0638,-8.062,-8.0748,-8.0806,-8.0924,-8.0963,-8.1062,-8.101,-8.106,-8.1073,-8.1086,-8.1101,-8.0746,-8.1078,-8.1077,-8.1076,-8.1075,-8.1075,0,-8.0279,-8.0315,-8.0414,-8.0512,-8.0597,-8.0545,-8.0617,-8.0691,-8.0804,-8.0863,-8.0948,-8.1079,-8.1181,-8.1208,-8.1307,-8.138,-8.136,-8.1407,-8.1401,-8.1409,-8.1142,-8.1102,-8.1421,-8.1421,-8.1421,-8.1421,-8.1421,-8.1421,-8.0463,-8.0625,-8.0628,-8.0814,-8.0847,-8.0974,-8.102,-8.1079,-8.1126,-8.1275,-8.1361,-8.1379,-8.1424,-8.1526,-8.1617,-8.1622,-8.1661,-8.1717,-8.1713,-8.1463,-8.1428,-8.1395,-8.1357,-8.1725,-8.1726,-8.1972,-8.1974,-8.1976]}]]